Data No.,UTC Date,UTC Time,Latitude,Longitude,Course(deg),Temp(degC),Sal(psu)
10301,2015/1/2,10:46:00,00-00.0600S,144-52.9200E,162,30.254,33.9803
10302,2015/1/2,10:47:00,00-00.2700S,144-52.9800E,163,30.256,33.9793
10303,2015/1/2,10:48:00,00-00.4800S,144-53.0500E,163,30.265,33.9799
10304,2015/1/2,10:49:00,00-00.6900S,144-53.1100E,162,30.246,33.9844
10305,2015/1/2,10:50:00,00-00.8800S,144-53.1700E,162,30.241,33.9715
10306,2015/1/2,10:51:00,00-01.0800S,144-53.2300E,163,30.257,33.9601
10307,2015/1/2,10:52:00,00-01.2900S,144-53.2900E,162,30.263,33.9633
10308,2015/1/2,10:53:00,00-01.4900S,144-53.3500E,162,30.266,33.968
10309,2015/1/2,10:54:00,00-01.6900S,144-53.4100E,163,30.253,33.9679
10310,2015/1/2,10:55:00,00-01.9000S,144-53.4700E,162,30.245,33.9614
10311,2015/1/2,10:56:00,00-02.1000S,144-53.5300E,162,30.251,33.9524
10312,2015/1/2,10:57:00,00-02.3000S,144-53.6000E,162,30.245,33.9363
10313,2015/1/2,10:58:00,00-02.5100S,144-53.6600E,162,30.244,33.9456
10314,2015/1/2,10:59:00,00-02.7100S,144-53.7200E,163,30.25,33.9474
10315,2015/1/2,11:00:00,00-02.9100S,144-53.7900E,162,30.236,33.9452
10316,2015/1/2,11:01:00,00-03.1200S,144-53.8500E,162,30.216,33.9374
10317,2015/1/2,11:02:00,00-03.3200S,144-53.9100E,163,30.216,33.929
10318,2015/1/2,11:03:00,00-03.5300S,144-53.9700E,162,30.226,33.9228
10319,2015/1/2,11:04:00,00-03.7300S,144-54.0400E,162,30.224,33.9356
10320,2015/1/2,11:05:00,00-03.9400S,144-54.1000E,163,30.213,33.9382
10321,2015/1/2,11:06:00,00-04.1400S,144-54.1600E,163,30.185,33.9317
10322,2015/1/2,11:07:00,00-04.3500S,144-54.2200E,162,30.204,33.9137
10323,2015/1/2,11:08:00,00-04.5500S,144-54.2900E,163,30.217,33.9177
10324,2015/1/2,11:09:00,00-04.7500S,144-54.3500E,163,30.22,33.9258
10325,2015/1/2,11:10:00,00-04.9500S,144-54.4100E,162,30.227,33.9292
10326,2015/1/2,11:11:00,00-05.1700S,144-54.4800E,162,30.229,33.9319
10327,2015/1/2,11:12:00,00-05.3700S,144-54.5400E,162,30.224,33.9332
10328,2015/1/2,11:13:00,00-05.5800S,144-54.6000E,162,30.221,33.9343
10329,2015/1/2,11:14:00,00-05.7800S,144-54.6600E,163,30.221,33.9318
10330,2015/1/2,11:15:00,00-05.9800S,144-54.7300E,162,30.207,33.9325
10331,2015/1/2,11:16:00,00-06.1800S,144-54.7900E,163,30.202,33.9301
10332,2015/1/2,11:17:00,00-06.3900S,144-54.8500E,162,30.208,33.9234
10333,2015/1/2,11:18:00,00-06.5900S,144-54.9100E,162,30.192,33.9229
10334,2015/1/2,11:19:00,00-06.8000S,144-54.9800E,163,30.203,33.9192
10335,2015/1/2,11:20:00,00-07.0000S,144-55.0400E,162,30.196,33.9231
10336,2015/1/2,11:21:00,00-07.2000S,144-55.1000E,163,30.156,33.9309
10337,2015/1/2,11:22:00,00-07.4000S,144-55.1600E,162,30.136,33.9186
10338,2015/1/2,11:23:00,00-07.6100S,144-55.2200E,163,30.13,33.9078
10339,2015/1/2,11:24:00,00-07.8100S,144-55.2800E,163,30.144,33.9012
10340,2015/1/2,11:25:00,00-08.0100S,144-55.3400E,163,30.148,33.9116
10341,2015/1/2,11:26:00,00-08.2200S,144-55.4000E,164,30.243,33.92
10342,2015/1/2,11:27:00,00-08.4200S,144-55.4700E,162,30.266,33.9829
10343,2015/1/2,11:28:00,00-08.6200S,144-55.5300E,162,30.27,34.0273
10344,2015/1/2,11:29:00,00-08.8200S,144-55.5900E,162,30.269,34.034
10345,2015/1/2,11:30:00,00-09.0200S,144-55.6500E,163,30.278,34.0359
10346,2015/1/2,11:31:00,00-09.2200S,144-55.7100E,162,30.278,34.0168
10347,2015/1/2,11:32:00,00-09.4200S,144-55.7700E,163,30.269,34.0327
10348,2015/1/2,11:33:00,00-09.6300S,144-55.8300E,163,30.254,34.0292
10349,2015/1/2,11:34:00,00-09.8300S,144-55.8900E,163,30.247,34.0209
10350,2015/1/2,11:35:00,00-10.0300S,144-55.9500E,161,30.242,34.009
10351,2015/1/2,11:36:00,00-10.2200S,144-56.0000E,163,30.228,33.9996
10352,2015/1/2,11:37:00,00-10.4200S,144-56.0600E,163,30.226,33.9921
10353,2015/1/2,11:38:00,00-10.6200S,144-56.1200E,162,30.236,33.9877
10354,2015/1/2,11:39:00,00-10.8100S,144-56.1800E,162,30.236,33.9882
10355,2015/1/2,11:40:00,00-11.0100S,144-56.2400E,163,30.241,33.9879
10356,2015/1/2,11:41:00,00-11.2100S,144-56.2900E,162,30.243,33.986
10357,2015/1/2,11:42:00,00-11.4000S,144-56.3500E,163,30.243,33.984
10358,2015/1/2,11:43:00,00-11.6100S,144-56.4100E,163,30.249,33.9847
10359,2015/1/2,11:44:00,00-11.8100S,144-56.4700E,163,30.262,33.9899
10360,2015/1/2,11:45:00,00-12.0000S,144-56.5300E,164,30.263,33.994
10361,2015/1/2,11:46:00,00-12.2000S,144-56.5900E,163,30.271,34.0007
10362,2015/1/2,11:47:00,00-12.4000S,144-56.6500E,163,30.277,34.0045
10363,2015/1/2,11:48:00,00-12.6000S,144-56.7100E,162,30.296,34.0136
10364,2015/1/2,11:49:00,00-12.8000S,144-56.7700E,162,30.305,34.0163
10365,2015/1/2,11:50:00,00-12.9900S,144-56.8300E,163,30.288,34.0409
10366,2015/1/2,11:51:00,00-13.1900S,144-56.8900E,162,30.292,34.0335
10367,2015/1/2,11:52:00,00-13.3900S,144-56.9500E,162,30.29,34.03
10368,2015/1/2,11:53:00,00-13.5900S,144-57.0100E,162,30.285,34.0286
10369,2015/1/2,11:54:00,00-13.7900S,144-57.0800E,162,30.279,34.0226
10370,2015/1/2,11:55:00,00-14.0000S,144-57.1400E,162,30.271,34.0191
10371,2015/1/2,11:56:00,00-14.2000S,144-57.2000E,163,30.265,34.0131
10372,2015/1/2,11:57:00,00-14.4100S,144-57.2700E,162,30.259,34.0077
10373,2015/1/2,11:58:00,00-14.6000S,144-57.3300E,162,30.256,34.0042
10374,2015/1/2,11:59:00,00-14.8100S,144-57.3900E,162,30.249,34.001
10375,2015/1/2,12:00:00,00-15.0100S,144-57.4500E,162,30.243,33.9971
10376,2015/1/2,12:01:00,00-15.2100S,144-57.5200E,163,30.24,33.9942
10377,2015/1/2,12:02:00,00-15.4100S,144-57.5800E,162,30.236,33.9897
10378,2015/1/2,12:03:00,00-15.6100S,144-57.6400E,163,30.237,33.9875
10379,2015/1/2,12:04:00,00-15.8200S,144-57.7000E,162,30.231,33.987
10380,2015/1/2,12:05:00,00-16.0200S,144-57.7700E,162,30.232,33.984
10381,2015/1/2,12:06:00,00-16.2200S,144-57.8300E,161,30.223,33.986
10382,2015/1/2,12:07:00,00-16.4200S,144-57.9000E,162,30.224,33.9821
10383,2015/1/2,12:08:00,00-16.6200S,144-57.9600E,163,30.218,33.9812
10384,2015/1/2,12:09:00,00-16.8300S,144-58.0200E,162,30.258,33.9814
10385,2015/1/2,12:10:00,00-17.0300S,144-58.0900E,161,30.265,34.0027
10386,2015/1/2,12:11:00,00-17.2300S,144-58.1500E,162,30.26,34.017
10387,2015/1/2,12:12:00,00-17.4300S,144-58.2100E,163,30.282,34.0194
10388,2015/1/2,12:13:00,00-17.6300S,144-58.2800E,162,30.274,34.0331
10389,2015/1/2,12:14:00,00-17.8300S,144-58.3400E,162,30.27,34.0258
10390,2015/1/2,12:15:00,00-18.0400S,144-58.4000E,162,30.251,34.0167
10391,2015/1/2,12:16:00,00-18.2400S,144-58.4700E,162,30.238,34.0073
10392,2015/1/2,12:17:00,00-18.4500S,144-58.5300E,163,30.328,33.996
10393,2015/1/2,12:18:00,00-18.6500S,144-58.6000E,162,30.333,34.0534
10394,2015/1/2,12:19:00,00-18.8500S,144-58.6600E,162,30.331,34.0764
10395,2015/1/2,12:20:00,00-19.0500S,144-58.7200E,162,30.334,34.0802
10396,2015/1/2,12:21:00,00-19.2500S,144-58.7800E,162,30.336,34.0784
10397,2015/1/2,12:22:00,00-19.4500S,144-58.8500E,162,30.345,34.0762
10398,2015/1/2,12:23:00,00-19.6400S,144-58.9100E,162,30.353,34.0771
10399,2015/1/2,12:24:00,00-19.8400S,144-58.9700E,161,30.365,34.0799
10400,2015/1/2,12:25:00,00-20.0400S,144-59.0400E,162,30.366,34.0852
10401,2015/1/2,12:26:00,00-20.2400S,144-59.1000E,162,30.37,34.09
10402,2015/1/2,12:27:00,00-20.4400S,144-59.1600E,162,30.359,34.0898
10403,2015/1/2,12:28:00,00-20.6400S,144-59.2200E,163,30.349,34.0849
10404,2015/1/2,12:29:00,00-20.8400S,144-59.2900E,162,30.354,34.0781
10405,2015/1/2,12:30:00,00-21.0300S,144-59.3500E,162,30.354,34.0744
10406,2015/1/2,12:31:00,00-21.2300S,144-59.4100E,162,30.35,34.073
10407,2015/1/2,12:32:00,00-21.4400S,144-59.4800E,162,30.347,34.0678
10408,2015/1/2,12:33:00,00-21.6300S,144-59.5400E,162,30.346,34.0625
10409,2015/1/2,12:34:00,00-21.8300S,144-59.6000E,162,30.345,34.06
10410,2015/1/2,12:35:00,00-22.0300S,144-59.6700E,162,30.354,34.0614
10411,2015/1/2,12:36:00,00-22.2300S,144-59.7300E,161,30.364,34.064
10412,2015/1/2,12:37:00,00-22.4300S,144-59.7900E,162,30.35,34.0666
10413,2015/1/2,12:38:00,00-22.6300S,144-59.8600E,162,30.347,34.0607
10414,2015/1/2,12:39:00,00-22.8400S,144-59.9300E,162,30.347,34.0555
10415,2015/1/2,12:40:00,00-23.0400S,144-59.9900E,161,30.352,34.0556
10416,2015/1/2,12:41:00,00-23.2400S,145-00.0500E,161,30.352,34.0417
10417,2015/1/2,12:42:00,00-23.4400S,145-00.1200E,162,30.348,34.0567
10418,2015/1/2,12:43:00,00-23.6400S,145-00.1800E,162,30.342,34.0548
10419,2015/1/2,12:44:00,00-23.8400S,145-00.2500E,161,30.347,34.0534
10420,2015/1/2,12:45:00,00-24.0400S,145-00.3100E,162,30.35,34.0414
10421,2015/1/2,12:46:00,00-24.2400S,145-00.3800E,162,30.34,34.057
10422,2015/1/2,12:47:00,00-24.4400S,145-00.4400E,161,30.337,34.0536
10423,2015/1/2,12:48:00,00-24.6300S,145-00.5100E,161,30.343,34.05
10424,2015/1/2,12:49:00,00-24.8400S,145-00.5700E,162,30.337,34.0533
10425,2015/1/2,12:50:00,00-25.0400S,145-00.6400E,162,30.339,34.0506
10426,2015/1/2,12:51:00,00-25.2300S,145-00.7000E,161,30.333,34.052
10427,2015/1/2,12:52:00,00-25.4300S,145-00.7700E,161,30.325,34.0502
10428,2015/1/2,12:53:00,00-25.6400S,145-00.8400E,161,30.324,34.0469
10429,2015/1/2,12:54:00,00-25.8300S,145-00.9000E,161,30.32,34.0462
10430,2015/1/2,12:55:00,00-26.0300S,145-00.9700E,161,30.319,34.0468
10431,2015/1/2,12:56:00,00-26.2400S,145-01.0400E,161,30.317,34.0464
10432,2015/1/2,12:57:00,00-26.4400S,145-01.1100E,160,30.317,34.0456
10433,2015/1/2,12:58:00,00-26.6400S,145-01.1700E,161,30.314,34.0477
10434,2015/1/2,12:59:00,00-26.8300S,145-01.2400E,160,30.31,34.0457
10435,2015/1/2,13:00:00,00-27.0400S,145-01.3100E,161,30.307,34.0458
10436,2015/1/2,13:01:00,00-27.2500S,145-01.3800E,161,30.303,34.0438
10437,2015/1/2,13:02:00,00-27.4500S,145-01.4400E,162,30.298,34.0432
10438,2015/1/2,13:03:00,00-27.6500S,145-01.5100E,161,30.291,34.0406
10439,2015/1/2,13:04:00,00-27.8500S,145-01.5700E,162,30.288,34.0358
10440,2015/1/2,13:05:00,00-28.0500S,145-01.6400E,161,30.284,34.0356
10441,2015/1/2,13:06:00,00-28.2500S,145-01.7100E,161,30.28,34.0372
10442,2015/1/2,13:07:00,00-28.4500S,145-01.7700E,161,30.283,34.0368
10443,2015/1/2,13:08:00,00-28.6500S,145-01.8400E,161,30.386,34.0447
10444,2015/1/2,13:09:00,00-28.8500S,145-01.9100E,162,30.401,34.1234
10445,2015/1/2,13:10:00,00-29.0500S,145-01.9700E,160,30.403,34.1522
10446,2015/1/2,13:11:00,00-29.2400S,145-02.0500E,158,30.403,34.1574
10447,2015/1/2,13:12:00,00-29.4400S,145-02.1300E,159,30.404,34.1567
10448,2015/1/2,13:13:00,00-29.6300S,145-02.2000E,159,30.399,34.1568
10449,2015/1/2,13:14:00,00-29.8200S,145-02.2700E,159,30.395,34.1545
10450,2015/1/2,13:15:00,00-30.0100S,145-02.3500E,157,30.395,34.153
10451,2015/1/2,13:16:00,00-30.2000S,145-02.4300E,158,30.392,34.1522
10452,2015/1/2,13:17:00,00-30.4000S,145-02.5000E,158,30.391,34.1541
10453,2015/1/2,13:18:00,00-30.5900S,145-02.5800E,159,30.39,34.155
10454,2015/1/2,13:19:00,00-30.7900S,145-02.6500E,158,30.39,34.1552
10455,2015/1/2,13:20:00,00-30.9800S,145-02.7300E,158,30.382,34.1556
10456,2015/1/2,13:21:00,00-31.1800S,145-02.8000E,158,30.376,34.1552
10457,2015/1/2,13:22:00,00-31.3700S,145-02.8800E,159,30.384,34.1533
10458,2015/1/2,13:23:00,00-31.5700S,145-02.9600E,159,30.391,34.1544
10459,2015/1/2,13:24:00,00-31.7800S,145-03.0400E,158,30.388,34.1588
10460,2015/1/2,13:25:00,00-31.9700S,145-03.1100E,158,30.386,34.1589
10461,2015/1/2,13:26:00,00-32.1600S,145-03.1900E,159,30.383,34.1573
10462,2015/1/2,13:27:00,00-32.3600S,145-03.2600E,159,30.373,34.1563
10463,2015/1/2,13:28:00,00-32.5500S,145-03.3400E,158,30.371,34.152
10464,2015/1/2,13:29:00,00-32.7500S,145-03.4100E,158,30.364,34.1517
10465,2015/1/2,13:30:00,00-32.9400S,145-03.4900E,158,30.361,34.1503
10466,2015/1/2,13:31:00,00-33.1300S,145-03.5600E,158,30.354,34.1502
10467,2015/1/2,13:32:00,00-33.3300S,145-03.6400E,158,30.349,34.1487
10468,2015/1/2,13:33:00,00-33.5200S,145-03.7100E,158,30.344,34.148
10469,2015/1/2,13:34:00,00-33.7200S,145-03.7900E,157,30.344,34.1485
10470,2015/1/2,13:35:00,00-33.9100S,145-03.8600E,158,30.358,34.1502
10471,2015/1/2,13:36:00,00-34.1000S,145-03.9400E,158,30.363,34.1615
10472,2015/1/2,13:37:00,00-34.2900S,145-04.0200E,158,30.365,34.1676
10473,2015/1/2,13:38:00,00-34.4800S,145-04.0900E,159,30.363,34.1725
10474,2015/1/2,13:39:00,00-34.6800S,145-04.1600E,159,30.362,34.1696
10475,2015/1/2,13:40:00,00-34.8700S,145-04.2400E,159,30.362,34.1747
10476,2015/1/2,13:41:00,00-35.0600S,145-04.3100E,158,30.368,34.1757
10477,2015/1/2,13:42:00,00-35.2600S,145-04.3900E,158,30.362,34.1805
10478,2015/1/2,13:43:00,00-35.4500S,145-04.4600E,159,30.356,34.1803
10479,2015/1/2,13:44:00,00-35.6400S,145-04.5300E,159,30.362,34.1777
10480,2015/1/2,13:45:00,00-35.8400S,145-04.6100E,159,30.359,34.1783
10481,2015/1/2,13:46:00,00-36.0500S,145-04.6900E,158,30.351,34.1792
10482,2015/1/2,13:47:00,00-36.2400S,145-04.7700E,158,30.35,34.1759
10483,2015/1/2,13:48:00,00-36.4300S,145-04.8400E,159,30.349,34.174
10484,2015/1/2,13:49:00,00-36.6200S,145-04.9200E,158,30.35,34.173
10485,2015/1/2,13:50:00,00-36.8200S,145-04.9900E,157,30.317,34.1728
10486,2015/1/2,13:51:00,00-37.0100S,145-05.0700E,158,30.291,34.1663
10487,2015/1/2,13:52:00,00-37.2000S,145-05.1500E,158,30.293,34.1422
10488,2015/1/2,13:53:00,00-37.4000S,145-05.2300E,158,30.281,34.1361
10489,2015/1/2,13:54:00,00-37.5900S,145-05.3100E,158,30.293,34.1322
10490,2015/1/2,13:55:00,00-37.7800S,145-05.3800E,157,30.299,34.1294
10491,2015/1/2,13:56:00,00-37.9800S,145-05.4600E,157,30.303,34.134
10492,2015/1/2,13:57:00,00-38.1700S,145-05.5300E,158,30.305,34.1366
10493,2015/1/2,13:58:00,00-38.3700S,145-05.6100E,158,30.309,34.1401
10494,2015/1/2,13:59:00,00-38.5600S,145-05.6900E,158,30.308,34.1418
10495,2015/1/2,14:00:00,00-38.7500S,145-05.7600E,158,30.31,34.1409
10496,2015/1/2,14:01:00,00-38.9500S,145-05.8400E,158,30.31,34.1424
10497,2015/1/2,14:02:00,00-39.1400S,145-05.9100E,158,30.316,34.1441
10498,2015/1/2,14:03:00,00-39.3300S,145-05.9900E,158,30.317,34.1489
10499,2015/1/2,14:04:00,00-39.5200S,145-06.0600E,158,30.321,34.1536
10500,2015/1/2,14:05:00,00-39.7200S,145-06.1400E,158,30.323,34.1583
10501,2015/1/2,14:06:00,00-39.9100S,145-06.2100E,158,30.315,34.1606
10502,2015/1/2,14:07:00,00-40.1000S,145-06.2900E,157,30.305,34.1616
10503,2015/1/2,14:08:00,00-40.3100S,145-06.3700E,158,30.299,34.1573
10504,2015/1/2,14:09:00,00-40.5000S,145-06.4500E,158,30.31,34.1571
10505,2015/1/2,14:10:00,00-40.6900S,145-06.5200E,158,30.304,34.1638
10506,2015/1/2,14:11:00,00-40.8800S,145-06.6000E,158,30.307,34.1649
10507,2015/1/2,14:12:00,00-41.0800S,145-06.6700E,158,30.304,34.1637
10508,2015/1/2,14:13:00,00-41.2700S,145-06.7400E,158,30.306,34.1631
10509,2015/1/2,14:14:00,00-41.4600S,145-06.8200E,158,30.306,34.1626
10510,2015/1/2,14:15:00,00-41.6500S,145-06.9000E,158,30.309,34.1638
10511,2015/1/2,14:16:00,00-41.8400S,145-06.9700E,158,30.308,34.1666
10512,2015/1/2,14:17:00,00-42.0400S,145-07.0500E,158,30.305,34.1664
10513,2015/1/2,14:18:00,00-42.2300S,145-07.1200E,159,30.301,34.1652
10514,2015/1/2,14:19:00,00-42.4200S,145-07.2000E,158,30.295,34.1649
10515,2015/1/2,14:20:00,00-42.6200S,145-07.2700E,159,30.298,34.1635
10516,2015/1/2,14:21:00,00-42.8100S,145-07.3500E,158,30.29,34.162
10517,2015/1/2,14:22:00,00-43.0000S,145-07.4200E,158,30.283,34.1611
10518,2015/1/2,14:23:00,00-43.1900S,145-07.5000E,159,30.277,34.1555
10519,2015/1/2,14:24:00,00-43.3900S,145-07.5700E,159,30.286,34.1572
10520,2015/1/2,14:25:00,00-43.5800S,145-07.6500E,159,30.285,34.1639
10521,2015/1/2,14:26:00,00-43.7800S,145-07.7200E,158,30.299,34.1682
10522,2015/1/2,14:27:00,00-43.9700S,145-07.8000E,157,30.307,34.173
10523,2015/1/2,14:28:00,00-44.1600S,145-07.8800E,157,30.303,34.1822
10524,2015/1/2,14:29:00,00-44.3500S,145-07.9500E,158,30.296,34.18
10525,2015/1/2,14:30:00,00-44.5600S,145-08.0400E,158,30.286,34.1753
10526,2015/1/2,14:31:00,00-44.7500S,145-08.1100E,157,30.275,---
10527,2015/1/2,14:32:00,00-44.9400S,145-08.1900E,156,30.255,34.1741
10528,2015/1/2,14:33:00,00-45.1400S,145-08.2700E,158,30.25,34.1576
10529,2015/1/2,14:34:00,00-45.3200S,145-08.3500E,156,30.234,34.1518
10530,2015/1/2,14:35:00,00-45.5100S,145-08.4300E,158,30.249,34.1433
10531,2015/1/2,14:36:00,00-45.7100S,145-08.5100E,157,30.226,34.146
10532,2015/1/2,14:37:00,00-45.8900S,145-08.5900E,156,30.186,34.1428
10533,2015/1/2,14:38:00,00-46.0900S,145-08.6700E,157,30.168,34.1203
10534,2015/1/2,14:39:00,00-46.2700S,145-08.7500E,157,30.134,34.1047
10535,2015/1/2,14:40:00,00-46.4600S,145-08.8300E,157,30.142,34.0717
10536,2015/1/2,14:41:00,00-46.6600S,145-08.9100E,158,30.138,34.0795
10537,2015/1/2,14:42:00,00-46.8500S,145-08.9800E,157,30.128,34.082
10538,2015/1/2,14:43:00,00-47.0300S,145-09.0600E,158,30.116,34.0821
10539,2015/1/2,14:44:00,00-47.2300S,145-09.1400E,158,30.121,34.0759
10540,2015/1/2,14:45:00,00-47.4200S,145-09.2200E,157,30.114,34.0771
10541,2015/1/2,14:46:00,00-47.6100S,145-09.2900E,157,30.105,34.0745
10542,2015/1/2,14:47:00,00-47.8000S,145-09.3700E,158,30.084,34.0724
10543,2015/1/2,14:48:00,00-47.9900S,145-09.4500E,157,30.064,34.062
10544,2015/1/2,14:49:00,00-48.1800S,145-09.5300E,159,30.055,34.0521
10545,2015/1/2,14:50:00,00-48.3800S,145-09.6000E,158,30.046,34.0489
10546,2015/1/2,14:51:00,00-48.5700S,145-09.6800E,158,30.043,34.0455
10547,2015/1/2,14:52:00,00-48.7800S,145-09.7600E,158,30.031,34.0424
10548,2015/1/2,14:53:00,00-48.9800S,145-09.8300E,158,30.013,34.0384
10549,2015/1/2,14:54:00,00-49.1700S,145-09.9100E,157,29.996,34.0321
10550,2015/1/2,14:55:00,00-49.3600S,145-09.9900E,157,30.001,34.0221
10551,2015/1/2,14:56:00,00-49.5600S,145-10.0700E,157,29.977,34.0225
10552,2015/1/2,14:57:00,00-49.7500S,145-10.1400E,158,29.903,34.0131
10553,2015/1/2,14:58:00,00-49.9500S,145-10.2200E,158,29.902,33.9793
10554,2015/1/2,14:59:00,00-50.1400S,145-10.3000E,158,29.911,33.9446
10555,2015/1/2,15:00:00,00-50.3400S,145-10.3700E,158,29.886,33.9575
10556,2015/1/2,15:01:00,00-50.5400S,145-10.4500E,158,29.851,33.9635
10557,2015/1/2,15:02:00,00-50.7400S,145-10.5300E,158,29.94,33.9548
10558,2015/1/2,15:03:00,00-50.9300S,145-10.6000E,158,29.994,33.9759
10559,2015/1/2,15:04:00,00-51.1300S,145-10.6800E,158,29.992,34.0283
10560,2015/1/2,15:05:00,00-51.3200S,145-10.7600E,158,29.984,34.034
10561,2015/1/2,15:06:00,00-51.5100S,145-10.8300E,158,29.979,34.0311
10562,2015/1/2,15:07:00,00-51.7100S,145-10.9000E,158,29.982,34.0264
10563,2015/1/2,15:08:00,00-51.9100S,145-10.9800E,158,29.995,34.0276
10564,2015/1/2,15:09:00,00-52.1000S,145-11.0600E,158,29.997,34.0367
10565,2015/1/2,15:10:00,00-52.3000S,145-11.1300E,158,29.999,34.04
10566,2015/1/2,15:11:00,00-52.4900S,145-11.2100E,158,29.992,34.0418
10567,2015/1/2,15:12:00,00-52.6900S,145-11.2900E,158,29.989,34.038
10568,2015/1/2,15:13:00,00-52.8900S,145-11.3600E,159,29.977,34.0346
10569,2015/1/2,15:14:00,00-53.0800S,145-11.4400E,158,29.975,34.0288
10570,2015/1/2,15:15:00,00-53.2900S,145-11.5200E,157,29.965,34.0251
10571,2015/1/2,15:16:00,00-53.4900S,145-11.6000E,158,29.956,34.0195
10572,2015/1/2,15:17:00,00-53.6800S,145-11.6800E,158,29.944,34.0144
10573,2015/1/2,15:18:00,00-53.8800S,145-11.7500E,158,29.934,34.0083
10574,2015/1/2,15:19:00,00-54.0700S,145-11.8300E,158,29.93,33.9981
10575,2015/1/2,15:20:00,00-54.2700S,145-11.9100E,158,29.932,33.9942
10576,2015/1/2,15:21:00,00-54.4600S,145-11.9800E,158,29.931,33.9942
10577,2015/1/2,15:22:00,00-54.6600S,145-12.0600E,158,29.923,33.9934
10578,2015/1/2,15:23:00,00-54.8600S,145-12.1400E,158,29.918,33.9927
10579,2015/1/2,15:24:00,00-55.0500S,145-12.2100E,158,29.91,33.9918
10580,2015/1/2,15:25:00,00-55.2500S,145-12.2900E,158,29.9,33.991
10581,2015/1/2,15:26:00,00-55.4500S,145-12.3700E,158,29.923,33.9887
10582,2015/1/2,15:27:00,00-55.6400S,145-12.4400E,158,29.935,33.9752
10583,2015/1/2,15:28:00,00-55.8400S,145-12.5200E,158,29.923,34.0116
10584,2015/1/2,15:29:00,00-56.0300S,145-12.6000E,157,29.921,34.0091
10585,2015/1/2,15:30:00,00-56.2300S,145-12.6700E,158,29.916,34.0109
10586,2015/1/2,15:31:00,00-56.4300S,145-12.7500E,158,29.894,34.0118
10587,2015/1/2,15:32:00,00-56.6300S,145-12.8300E,158,29.903,34.0048
10588,2015/1/2,15:33:00,00-56.8200S,145-12.9100E,158,29.906,34.0108
10589,2015/1/2,15:34:00,00-57.0200S,145-12.9800E,158,29.951,34.0096
10590,2015/1/2,15:35:00,00-57.2100S,145-13.0600E,159,29.977,34.0434
10591,2015/1/2,15:36:00,00-57.4100S,145-13.1300E,158,29.974,34.0642
10592,2015/1/2,15:37:00,00-57.6200S,145-13.2100E,158,29.995,34.068
10593,2015/1/2,15:38:00,00-57.8100S,145-13.2900E,158,30.002,34.0778
10594,2015/1/2,15:39:00,00-58.0100S,145-13.3600E,158,30.019,34.0865
10595,2015/1/2,15:40:00,00-58.2000S,145-13.4400E,158,30.038,34.0975
10596,2015/1/2,15:41:00,00-58.3900S,145-13.5200E,157,30.042,34.1106
10597,2015/1/2,15:42:00,00-58.5900S,145-13.6000E,158,30.036,34.1132
10598,2015/1/2,15:43:00,00-58.7800S,145-13.6700E,157,30.037,34.112
10599,2015/1/2,15:44:00,00-58.9700S,145-13.7500E,158,30.039,34.1122
10600,2015/1/2,15:45:00,00-59.1700S,145-13.8300E,158,30.047,34.1095
10601,2015/1/2,15:46:00,00-59.3600S,145-13.9000E,158,30.037,34.1121
10602,2015/1/2,15:47:00,00-59.5600S,145-13.9800E,157,30.04,34.1073
10603,2015/1/2,15:48:00,00-59.7500S,145-14.0600E,158,30.035,34.1075
10604,2015/1/2,15:49:00,00-59.9400S,145-14.1300E,158,30.033,34.1065
10605,2015/1/2,15:50:00,01-00.1300S,145-14.2100E,158,30.03,34.1053
10606,2015/1/2,15:51:00,01-00.3300S,145-14.2900E,157,30.023,34.1047
10607,2015/1/2,15:52:00,01-00.5200S,145-14.3700E,157,30.023,34.1023
10608,2015/1/2,15:53:00,01-00.7100S,145-14.4500E,156,30.016,34.1005
10609,2015/1/2,15:54:00,01-00.9000S,145-14.5300E,157,30.01,34.098
10610,2015/1/2,15:55:00,01-01.0900S,145-14.6100E,156,30.008,34.0951
10611,2015/1/2,15:56:00,01-01.2900S,145-14.6900E,156,30.006,34.0921
10612,2015/1/2,15:57:00,01-01.4800S,145-14.7700E,155,30.007,34.0909
10613,2015/1/2,15:58:00,01-01.6700S,145-14.8600E,156,30.007,34.0926
10614,2015/1/2,15:59:00,01-01.8700S,145-14.9500E,156,30.005,34.0944
10615,2015/1/2,16:00:00,01-02.0600S,145-15.0300E,156,30.003,34.094
10616,2015/1/2,16:01:00,01-02.2500S,145-15.1200E,157,30.004,34.0942
10617,2015/1/2,16:02:00,01-02.4400S,145-15.2000E,155,29.998,34.096
10618,2015/1/2,16:03:00,01-02.6300S,145-15.2900E,155,29.999,34.0934
10619,2015/1/2,16:04:00,01-02.8200S,145-15.3700E,156,29.993,34.092
10620,2015/1/2,16:05:00,01-03.0100S,145-15.4600E,155,29.994,34.0891
10621,2015/1/2,16:06:00,01-03.2000S,145-15.5400E,156,30.005,34.0918
10622,2015/1/2,16:07:00,01-03.3900S,145-15.6200E,156,30.012,34.1046
10623,2015/1/2,16:08:00,01-03.5800S,145-15.7000E,157,30.015,34.1122
10624,2015/1/2,16:09:00,01-03.7700S,145-15.7900E,156,30.012,34.1142
10625,2015/1/2,16:10:00,01-03.9600S,145-15.8700E,156,30.012,34.1167
10626,2015/1/2,16:11:00,01-04.1500S,145-15.9600E,156,30.001,34.1148
10627,2015/1/2,16:12:00,01-04.3400S,145-16.0400E,155,29.989,34.113
10628,2015/1/2,16:13:00,01-04.5300S,145-16.1200E,156,29.978,34.1092
10629,2015/1/2,16:14:00,01-04.7200S,145-16.2000E,156,29.976,34.1048
10630,2015/1/2,16:15:00,01-04.9100S,145-16.2900E,156,29.973,34.1028
10631,2015/1/2,16:16:00,01-05.1000S,145-16.3700E,155,29.982,34.1017
10632,2015/1/2,16:17:00,01-05.2900S,145-16.4600E,156,29.975,34.1051
10633,2015/1/2,16:18:00,01-05.4800S,145-16.5400E,156,29.967,34.1037
10634,2015/1/2,16:19:00,01-05.6700S,145-16.6200E,157,29.963,34.0977
10635,2015/1/2,16:20:00,01-05.8600S,145-16.7000E,157,29.959,34.0973
10636,2015/1/2,16:21:00,01-06.0600S,145-16.7900E,156,29.96,34.095
10637,2015/1/2,16:22:00,01-06.2500S,145-16.8700E,156,29.955,34.0932
10638,2015/1/2,16:23:00,01-06.4500S,145-16.9500E,156,29.961,34.0909
10639,2015/1/2,16:24:00,01-06.6400S,145-17.0300E,157,29.96,34.0924
10640,2015/1/2,16:25:00,01-06.8300S,145-17.1200E,156,29.968,34.0948
10641,2015/1/2,16:26:00,01-07.0200S,145-17.2000E,157,29.978,34.1002
10642,2015/1/2,16:27:00,01-07.2100S,145-17.2800E,156,29.976,34.1054
10643,2015/1/2,16:28:00,01-07.4000S,145-17.3600E,156,29.976,34.1061
10644,2015/1/2,16:29:00,01-07.6000S,145-17.4400E,156,29.975,34.1072
10645,2015/1/2,16:30:00,01-07.7800S,145-17.5200E,156,29.982,34.0934
10646,2015/1/2,16:31:00,01-07.9700S,145-17.6000E,157,29.979,34.1108
10647,2015/1/2,16:32:00,01-08.1700S,145-17.6900E,156,29.983,34.113
10648,2015/1/2,16:33:00,01-08.3600S,145-17.7700E,156,29.987,34.1145